Location: Gazon
(48.1318°N, 1.2708°W)
Time: 23:17:05
(UTC+00:00)

SPOT 1/Viking Rocket - Pass Details

Date: 18 September 2020
Orbit: 777 x 794 km, 98.5° (Epoch: 25 October)

Event Time Altitude Azimuth Distance (km) Brightness Sun altitude
Exits shadow 21:14:24 64° 359° (N) 869 3.8 -28.9°
Drops below altitude 10° 21:18:48 10° 347° (NNW) 2,352 6.7 -29.5°
Sets 21:21:07 0° 347° (NNW) 3,282 7.6 -29.8°
